Time,TemperatureF,DewpointF,PressureIn,WindDirection,WindDirectionDegrees,WindSpeedMPH,WindSpeedGustMPH,Humidity,HourlyPrecipIn,Conditions,Clouds,dailyrainin,SoftwareType,DateUTC
2013-03-10 03:00:00,35.0,34.0,-100.00,ENE,58,0.0,3.0,95,-99.99,,,-99.99,,2013-03-10 07:00:00,
2013-03-10 03:32:00,35.0,34.0,-100.00,ENE,58,0.0,3.0,95,-99.99,,,-99.99,,2013-03-10 07:32:00,
2013-03-10 03:42:00,35.0,34.0,-100.00,ENE,58,0.0,3.0,95,-99.99,,,-99.99,,2013-03-10 07:42:00,
2013-03-10 03:52:00,35.0,34.0,-100.00,ENE,58,0.0,3.0,95,-99.99,,,-99.99,,2013-03-10 07:52:00,
2013-03-10 04:00:00,34.0,33.0,-100.00,NNE,25,0.0,0.0,95,-99.99,,,-99.99,,2013-03-10 08:00:00,
2013-03-10 04:32:00,34.0,33.0,-100.00,NNE,25,0.0,0.0,95,-99.99,,,-99.99,,2013-03-10 08:32:00,
2013-03-10 04:42:00,34.0,33.0,-100.00,NNE,25,0.0,0.0,95,-99.99,,,-99.99,,2013-03-10 08:42:00,
2013-03-10 04:52:00,34.0,33.0,-100.00,NNE,25,0.0,0.0,95,-99.99,,,-99.99,,2013-03-10 08:52:00,
2013-03-10 05:00:00,32.0,31.0,-100.00,WNW,303,0.0,0.0,96,-99.99,,,-99.99,,2013-03-10 09:00:00,
2013-03-10 05:21:00,32.0,31.0,-100.00,WNW,303,0.0,0.0,96,-99.99,,,-99.99,,2013-03-10 09:21:00,
2013-03-10 05:32:00,32.0,31.0,-100.00,WNW,303,0.0,0.0,96,-99.99,,,-99.99,,2013-03-10 09:32:00,
2013-03-10 05:42:00,32.0,31.0,-100.00,WNW,303,0.0,0.0,96,-99.99,,,-99.99,,2013-03-10 09:42:00,
2013-03-10 05:52:00,32.0,31.0,-100.00,WNW,303,0.0,0.0,96,-99.99,,,-99.99,,2013-03-10 09:52:00,
2013-03-10 06:00:00,30.0,29.0,-100.00,North,5,0.0,0.0,97,-99.99,,,-99.99,,2013-03-10 10:00:00,
2013-03-10 06:22:00,30.0,29.0,-100.00,North,5,0.0,0.0,97,-99.99,,,-99.99,,2013-03-10 10:22:00,
2013-03-10 06:32:00,30.0,29.0,-100.00,North,5,0.0,0.0,97,-99.99,,,-99.99,,2013-03-10 10:32:00,
2013-03-10 06:42:00,30.0,29.0,-100.00,North,5,0.0,0.0,97,-99.99,,,-99.99,,2013-03-10 10:42:00,
2013-03-10 06:52:00,30.0,29.0,-100.00,North,5,0.0,0.0,97,-99.99,,,-99.99,,2013-03-10 10:52:00,
2013-03-10 07:00:00,32.0,31.0,-100.00,NE,42,0.0,0.0,96,-99.99,,,-99.99,,2013-03-10 11:00:00,
2013-03-10 07:21:00,32.0,31.0,-100.00,NE,42,0.0,0.0,96,-99.99,,,-99.99,,2013-03-10 11:21:00,
2013-03-10 07:32:00,32.0,31.0,-100.00,NE,42,0.0,0.0,96,-99.99,,,-99.99,,2013-03-10 11:32:00,
2013-03-10 07:42:00,32.0,31.0,-100.00,NE,42,0.0,0.0,96,-99.99,,,-99.99,,2013-03-10 11:42:00,
2013-03-10 07:52:00,32.0,31.0,-100.00,NE,42,0.0,0.0,96,-99.99,,,-99.99,,2013-03-10 11:52:00,
2013-03-10 08:00:00,34.0,33.0,-100.00,ENE,67,5.0,5.0,94,-99.99,,,-99.99,,2013-03-10 12:00:00,
2013-03-10 08:21:00,34.0,33.0,-100.00,ENE,67,5.0,5.0,94,-99.99,,,-99.99,,2013-03-10 12:21:00,
2013-03-10 08:32:00,34.0,33.0,-100.00,ENE,67,5.0,5.0,94,-99.99,,,-99.99,,2013-03-10 12:32:00,
2013-03-10 08:42:00,34.0,33.0,-100.00,ENE,67,5.0,5.0,94,-99.99,,,-99.99,,2013-03-10 12:42:00,
2013-03-10 08:52:00,34.0,33.0,-100.00,ENE,67,5.0,5.0,94,-99.99,,,-99.99,,2013-03-10 12:52:00,
2013-03-10 09:00:00,37.0,33.0,-100.00,East,83,6.0,12.0,84,-99.99,,,-99.99,,2013-03-10 13:00:00,
2013-03-10 09:21:00,37.0,33.0,-100.00,East,83,6.0,12.0,84,-99.99,,,-99.99,,2013-03-10 13:21:00,
2013-03-10 09:32:00,37.0,33.0,-100.00,East,83,6.0,12.0,84,-99.99,,,-99.99,,2013-03-10 13:32:00,
2013-03-10 09:42:00,37.0,33.0,-100.00,East,83,6.0,12.0,84,-99.99,,,-99.99,,2013-03-10 13:42:00,
2013-03-10 09:52:00,37.0,33.0,-100.00,East,83,6.0,12.0,84,-99.99,,,-99.99,,2013-03-10 13:52:00,
2013-03-10 10:00:00,38.0,33.0,-100.00,SE,129,3.0,14.0,84,-99.99,,,-99.99,,2013-03-10 14:00:00,
2013-03-10 10:22:00,38.0,33.0,-100.00,SE,129,3.0,14.0,84,-99.99,,,-99.99,,2013-03-10 14:22:00,
2013-03-10 10:32:00,38.0,33.0,-100.00,SE,129,3.0,14.0,84,-99.99,,,-99.99,,2013-03-10 14:32:00,
2013-03-10 10:42:00,38.0,33.0,-100.00,SE,129,3.0,14.0,84,-99.99,,,-99.99,,2013-03-10 14:42:00,
2013-03-10 10:52:00,38.0,33.0,-100.00,SE,129,3.0,14.0,84,-99.99,,,-99.99,,2013-03-10 14:52:00,
2013-03-10 11:00:00,39.0,33.0,-100.00,ESE,113,4.0,13.0,80,-99.99,,,-99.99,,2013-03-10 15:00:00,
2013-03-10 11:21:00,39.0,33.0,-100.00,ESE,113,4.0,13.0,80,-99.99,,,-99.99,,2013-03-10 15:21:00,
2013-03-10 11:32:00,39.0,33.0,-100.00,ESE,113,4.0,13.0,80,-99.99,,,-99.99,,2013-03-10 15:32:00,
2013-03-10 11:42:00,39.0,33.0,-100.00,ESE,113,4.0,13.0,80,-99.99,,,-99.99,,2013-03-10 15:42:00,
2013-03-10 11:52:00,39.0,33.0,-100.00,ESE,113,4.0,13.0,80,-99.99,,,-99.99,,2013-03-10 15:52:00,
2013-03-10 12:00:00,39.0,33.0,-100.00,East,96,7.0,13.0,78,-99.99,,,-99.99,,2013-03-10 16:00:00,
2013-03-10 12:22:00,39.0,33.0,-100.00,East,96,7.0,13.0,78,-99.99,,,-99.99,,2013-03-10 16:22:00,
2013-03-10 12:32:00,39.0,33.0,-100.00,East,96,7.0,13.0,78,-99.99,,,-99.99,,2013-03-10 16:32:00,
2013-03-10 12:42:00,39.0,33.0,-100.00,East,96,7.0,13.0,78,-99.99,,,-99.99,,2013-03-10 16:42:00,
2013-03-10 12:52:00,39.0,33.0,-100.00,East,96,7.0,13.0,78,-99.99,,,-99.99,,2013-03-10 16:52:00,
2013-03-10 13:00:00,39.0,33.0,-100.00,ESE,114,4.0,15.0,78,-99.99,,,-99.99,,2013-03-10 17:00:00,
2013-03-10 13:21:00,39.0,33.0,-100.00,ESE,114,4.0,15.0,78,-99.99,,,-99.99,,2013-03-10 17:21:00,
2013-03-10 13:32:00,39.0,33.0,-100.00,ESE,114,4.0,15.0,78,-99.99,,,-99.99,,2013-03-10 17:32:00,
2013-03-10 13:41:00,39.0,33.0,-100.00,ESE,114,4.0,15.0,78,-99.99,,,-99.99,,2013-03-10 17:41:00,
2013-03-10 13:52:00,39.0,33.0,-100.00,ESE,114,4.0,15.0,78,-99.99,,,-99.99,,2013-03-10 17:52:00,
2013-03-10 14:00:00,40.0,33.0,-100.00,East,88,4.0,12.0,76,-99.99,,,-99.99,,2013-03-10 18:00:00,
2013-03-10 14:22:00,40.0,33.0,-100.00,East,88,4.0,12.0,76,-99.99,,,-99.99,,2013-03-10 18:22:00,
2013-03-10 14:32:00,40.0,33.0,-100.00,East,88,4.0,12.0,76,-99.99,,,-99.99,,2013-03-10 18:32:00,
2013-03-10 14:42:00,40.0,33.0,-100.00,East,88,4.0,12.0,76,-99.99,,,-99.99,,2013-03-10 18:42:00,
2013-03-10 14:52:00,40.0,33.0,-100.00,East,88,4.0,12.0,76,-99.99,,,-99.99,,2013-03-10 18:52:00,
2013-03-10 15:00:00,40.0,33.0,-100.00,East,88,8.0,12.0,76,-99.99,,,-99.99,,2013-03-10 19:00:00,
2013-03-10 15:22:00,40.0,33.0,-100.00,East,88,8.0,12.0,76,-99.99,,,-99.99,,2013-03-10 19:22:00,
2013-03-10 15:32:00,40.0,33.0,-100.00,East,88,8.0,12.0,76,-99.99,,,-99.99,,2013-03-10 19:32:00,
2013-03-10 15:42:00,40.0,33.0,-100.00,East,88,8.0,12.0,76,-99.99,,,-99.99,,2013-03-10 19:42:00,
2013-03-10 15:53:00,40.0,33.0,-100.00,East,88,8.0,12.0,76,-99.99,,,-99.99,,2013-03-10 19:53:00,
2013-03-10 16:00:00,40.0,34.0,-100.00,ENE,73,6.0,11.0,76,-99.99,,,-99.99,,2013-03-10 20:00:00,
2013-03-10 16:22:00,40.0,34.0,-100.00,ENE,73,6.0,11.0,76,-99.99,,,-99.99,,2013-03-10 20:22:00,
2013-03-10 16:33:00,40.0,34.0,-100.00,ENE,73,6.0,11.0,76,-99.99,,,-99.99,,2013-03-10 20:33:00,
2013-03-10 16:43:00,40.0,34.0,-100.00,ENE,73,6.0,11.0,76,-99.99,,,-99.99,,2013-03-10 20:43:00,
2013-03-10 16:53:00,40.0,34.0,-100.00,ENE,73,6.0,11.0,76,-99.99,,,-99.99,,2013-03-10 20:53:00,
2013-03-10 17:00:00,39.0,33.0,-100.00,East,93,5.0,12.0,77,-99.99,,,-99.99,,2013-03-10 21:00:00,
2013-03-10 17:23:00,39.0,33.0,-100.00,East,93,5.0,12.0,77,-99.99,,,-99.99,,2013-03-10 21:23:00,
2013-03-10 17:33:00,39.0,33.0,-100.00,East,93,5.0,12.0,77,-99.99,,,-99.99,,2013-03-10 21:33:00,
2013-03-10 17:43:00,39.0,33.0,-100.00,East,93,5.0,12.0,77,-99.99,,,-99.99,,2013-03-10 21:43:00,
2013-03-10 17:53:00,39.0,33.0,-100.00,East,93,5.0,12.0,77,-99.99,,,-99.99,,2013-03-10 21:53:00,
2013-03-10 18:00:00,38.0,32.0,-100.00,SSE,150,5.0,11.0,81,-99.99,,,-99.99,,2013-03-10 22:00:00,
2013-03-10 18:22:00,38.0,32.0,-100.00,SSE,150,5.0,11.0,81,-99.99,,,-99.99,,2013-03-10 22:22:00,
2013-03-10 18:32:00,38.0,32.0,-100.00,SSE,150,5.0,11.0,81,-99.99,,,-99.99,,2013-03-10 22:32:00,
2013-03-10 18:43:00,38.0,32.0,-100.00,SSE,150,5.0,11.0,81,-99.99,,,-99.99,,2013-03-10 22:43:00,
2013-03-10 18:53:00,38.0,32.0,-100.00,SSE,150,5.0,11.0,81,-99.99,,,-99.99,,2013-03-10 22:53:00,
2013-03-10 19:00:00,37.0,33.0,-100.00,ESE,110,5.0,12.0,84,-99.99,,,-99.99,,2013-03-10 23:00:00,
2013-03-10 19:33:00,37.0,33.0,-100.00,ESE,110,5.0,12.0,84,-99.99,,,-99.99,,2013-03-10 23:33:00,
2013-03-10 19:43:00,37.0,33.0,-100.00,ESE,110,5.0,12.0,84,-99.99,,,-99.99,,2013-03-10 23:43:00,
2013-03-10 19:53:00,37.0,33.0,-100.00,ESE,110,5.0,12.0,84,-99.99,,,-99.99,,2013-03-10 23:53:00,
2013-03-10 20:00:00,37.0,33.0,-100.00,SE,128,4.0,8.0,86,-99.99,,,-99.99,,2013-03-11 00:00:00,
2013-03-10 20:23:00,37.0,33.0,-100.00,SE,128,4.0,8.0,86,-99.99,,,-99.99,,2013-03-11 00:23:00,
2013-03-10 20:33:00,37.0,33.0,-100.00,SE,128,4.0,8.0,86,-99.99,,,-99.99,,2013-03-11 00:33:00,
2013-03-10 20:43:00,37.0,33.0,-100.00,SE,128,4.0,8.0,86,-99.99,,,-99.99,,2013-03-11 00:43:00,
2013-03-10 20:53:00,37.0,33.0,-100.00,SE,128,4.0,8.0,86,-99.99,,,-99.99,,2013-03-11 00:53:00,
2013-03-10 21:00:00,37.0,34.0,-100.00,SE,131,0.0,6.0,87,-99.99,,,-99.99,,2013-03-11 01:00:00,
2013-03-10 21:23:00,37.0,34.0,-100.00,SE,131,0.0,6.0,87,-99.99,,,-99.99,,2013-03-11 01:23:00,
2013-03-10 21:33:00,37.0,34.0,-100.00,SE,131,0.0,6.0,87,-99.99,,,-99.99,,2013-03-11 01:33:00,
2013-03-10 21:43:00,37.0,34.0,-100.00,SE,131,0.0,6.0,87,-99.99,,,-99.99,,2013-03-11 01:43:00,
2013-03-10 21:53:00,37.0,34.0,-100.00,SE,131,0.0,6.0,87,-99.99,,,-99.99,,2013-03-11 01:53:00,
2013-03-10 22:00:00,37.0,34.0,-100.00,SE,126,0.0,4.0,90,-99.99,,,-99.99,,2013-03-11 02:00:00,
2013-03-10 22:23:00,37.0,34.0,-100.00,SE,126,0.0,4.0,90,-99.99,,,-99.99,,2013-03-11 02:23:00,
2013-03-10 22:32:00,37.0,34.0,-100.00,SE,126,0.0,4.0,90,-99.99,,,-99.99,,2013-03-11 02:32:00,
2013-03-10 22:42:00,37.0,34.0,-100.00,SE,126,0.0,4.0,90,-99.99,,,-99.99,,2013-03-11 02:42:00,
2013-03-10 22:53:00,37.0,34.0,-100.00,SE,126,0.0,4.0,90,-99.99,,,-99.99,,2013-03-11 02:53:00,
2013-03-10 23:00:00,38.0,35.0,-100.00,ESE,109,1.0,7.0,89,-99.99,,,-99.99,,2013-03-11 03:00:00,
2013-03-10 23:22:00,38.0,35.0,-100.00,ESE,109,1.0,7.0,89,-99.99,,,-99.99,,2013-03-11 03:22:00,
2013-03-10 23:32:00,38.0,35.0,-100.00,ESE,109,1.0,7.0,89,-99.99,,,-99.99,,2013-03-11 03:32:00,
2013-03-10 23:43:00,38.0,35.0,-100.00,ESE,109,1.0,7.0,89,-99.99,,,-99.99,,2013-03-11 03:43:00,
2013-03-10 23:53:00,38.0,35.0,-100.00,ESE,109,1.0,7.0,89,-99.99,,,-99.99,,2013-03-11 03:53:00,